Location: Unspecified
(50.7693°N, 0.0000°E)
Time: 21:50:53
(UTC+00:00)

Vanguard 2 - Pass Details

Date: 26 June 2019
Orbit: 553 x 2938 km, 32.9° (Epoch: 20 July)

Event Time Altitude Azimuth Distance (km) Brightness Sun altitude
Rises 09:03:33 0° 232° (SW) 3,158 10.5 46.0°
Reaches altitude 10° 09:06:34 10° 210° (SSW) 2,499 10.2 46.4°
Maximum altitude 09:10:10 16° 172° (S) 2,412 10.6 46.9°
Drops below altitude 10° 09:14:43 10° 137° (SE) 3,330 11.6 47.6°
Sets 09:19:46 0° 120° (ESE) 4,838 12.3 48.3°
